Regional Weather Roundup
Issued by NWS

Home | Current Version | Previous Version | Graphics & Text | Print | Product List | Glossary On
Versions: 1 2 3 4 5 6 7 8 9 10 11 12 13 14 15 16 17 18 19 20 21 22 23 24 25 26 27 28 29 30 31 32 33 34 35 36 37 38 39 40 41 42 43 44 45 46 47 48 49 50
926
ASUS43 KMKX 230411
RWRWI

WISCONSIN REGIONAL WEATHER ROUNDUP
NATIONAL WEATHER SERVICE MILWAUKEE/SULLIVAN WI
1100 PM CDT SAT APR 22 2017

NOTE: "FAIR" INDICATES FEW OR NO CLOUDS BELOW 12,000 FEET WITH NO
SIGNIFICANT WEATHER AND/OR OBSTRUCTIONS TO VISIBILITY.

WIZ001-002-006>008-014>016-023>028-230500-
NORTHWEST WISCONSIN

CITY           SKY/WX    TMP DP  RH WIND       PRES   REMARKS
SUPERIOR ARPT  CLOUDY    52  40  63 NE8       30.06R
ASHLAND        CLEAR     49  38  65 E9        30.07S
HAYWARD        PTCLDY    46  34  62 S5        30.06F
SIREN          CLEAR     54  32  43 CALM      30.07F
CUMBERLAND     CLEAR     52  32  46 SW5       30.09S
RICE LAKE      CLEAR     48  37  65 CALM      30.10S
CHETEK         CLEAR     48  35  59 SW3       30.09S
LADYSMITH      CLEAR     51  34  52 SW3       30.10S
EAU CLAIRE     CLEAR     54  34  46 SW3       30.09S
MENOMONIE      CLEAR     57  33  40 SW3       30.10S
NEW RICHMOND   CLEAR     48  38  66 S3        30.11R
OSCEOLA        CLEAR     51  35  55 SW3       30.12S
$$

WIZ003>005-009-010-017-018-230500-
NORTH CENTRAL WISCONSIN

CITY           SKY/WX    TMP DP  RH WIND       PRES   REMARKS
MANITOWISH WTR PTCLDY    53  32  45 SW7       30.04F
ARBOR VITAE    PTCLDY    52  36  54 CALM      30.05F
WOODRUFF       PTCLDY    52  36  54 CALM      30.05F
RHINELANDER    CLEAR     49  32  52 SW6       30.07S
EAGLE RIVER    PTCLDY    46  30  53 SW6       30.05S
LAND O LAKES   CLEAR     52  30  42 CALM      30.05S
PHILLIPS       CLEAR     48  35  61 SW3       30.07S
TOMAHAWK       CLEAR     51  32  47 SW3       30.08S
MEDFORD        CLEAR     51  33  48 SW7       30.09S
MERRILL        CLEAR     49  33  54 CALM      30.09S
$$

WIZ029-030-035-036-043>047-230500-
CENTRAL WISCONSIN

CITY           SKY/WX    TMP DP  RH WIND       PRES   REMARKS
WAUSAU         CLEAR     52  33  48 SW8       30.08S
MOSINEE        CLEAR     46  32  57 SW6       30.11S
MARSHFIELD     CLEAR     49  31  49 SW7       30.10S
STEVENS POINT  CLEAR     41  32  69 CALM      30.11F
WAUPACA        CLEAR     46  35  65 S3        30.11F
WAUTOMA        CLEAR     41  33  73 CALM      30.12F
WISC RAPIDS    CLEAR     45  32  60 SW5       30.12S
CAMP DOUGLAS   CLEAR     43  31  63 CALM      30.12F
$$

WIZ011>013-019>022-031-037>040-048>050-230500-
NORTHEAST WISCONSIN

CITY           SKY/WX    TMP DP  RH WIND       PRES   REMARKS
ANTIGO         CLEAR     46  33  61 SW7       30.09R
SHAWANO        CLEAR     54  32  43 CALM      30.09S
OCONTO         CLEAR     52  32  46 SW5       30.08S
STURGEON BAY   CLEAR     49  33  54 S10       30.08F
GREEN BAY      CLEAR     51  37  58 S6        30.10F
MANITOWOC      CLEAR     49  29  46 SW5       30.12F
APPLETON       PTCLDY    48  30  49 SW9       30.10F
CLINTONVILLE   CLEAR     50  32  50 SW6       30.09F
OSHKOSH        CLEAR     50  32  50 S9        30.11F
$$

WIZ032>034-041-042-053>061-230500-
SOUTHWEST WISCONSIN

CITY           SKY/WX    TMP DP  RH WIND       PRES   REMARKS
LA CROSSE      CLEAR     50  39  66 S7        30.12F
SPARTA         CLEAR     39  32  76 CALM      30.14F
VIROQUA        CLEAR     51  27  39 SW5       30.14F
BOSCOBEL       CLEAR     46  36  68 CALM      30.15F
PRAIRIE DU CHI CLEAR     46  33  59 CALM      30.15F
PLATTEVILLE    CLEAR     53  26  35 SW3       30.16F
$$

WIZ056-057-062-063-064-067-068-230500-
SOUTH CENTRAL WISCONSIN

CITY           SKY/WX    TMP DP  RH WIND       PRES   REMARKS
REEDSBURG      CLEAR     47  34  59 CALM      30.13F
BARABOO/DELLS  CLEAR     45  32  61 S3        30.13F
LONE ROCK      CLEAR     44  37  76 CALM      30.15F
MINERAL POINT  CLEAR     55  23  28 SW3       30.15F
MADISON        CLEAR     47  33  58 S3        30.14F
MIDDLETON      CLEAR     43  40  86 CALM      30.15F
WATERTOWN      CLEAR     40  35  83 CALM      30.14F
MONROE         CLEAR     54  27  35 S3        30.15F
JANESVILLE     CLEAR     46  32  57 CALM      30.15F
$$

WIZ051-052-058>065-066-070>072-230500-
SOUTHEAST WISCONSIN

CITY           SKY/WX    TMP DP  RH WIND       PRES   REMARKS
MILWAUKEE      CLEAR     46  27  47 CALM      30.15F
WAUKESHA       CLEAR     43  23  45 S3        30.16F
MILWAUKEE/TIMM CLEAR     43  23  45 CALM      30.16F
RACINE         CLEAR     42  28  57 CALM      30.17F
KENOSHA        CLEAR     41  30  65 CALM      30.16F
FOND DU LAC    CLEAR     50  33  52 SW6       30.12F
SHEBOYGAN      CLEAR     42  33  70 SW6       30.13F
WEST BEND      CLEAR     43  32  65 CALM      30.15S
JUNEAU         CLEAR     48  33  57 CALM      30.14F
$$

LSZ147-162-230500-
LAKE SUPERIOR

STATION/POSITION TIME  TEMP    WIND        PRES    WAVE
                       AIR SEA DIR/SP/G            HT/PER
                 (UTC) (F)     (DEG/KT/KT) (MB)    (FT/S)
DEVILS ISLAND    0400   46      20/ 13/ 14 1018.3F
PORT WING        0240   47      60/  5/  9 1017.6
SAXON HARBOR     0330   46      50/  2/  4 1017.9F
$$

LMZ867-665-643>646-230500-
LAKE MICHIGAN

STATION/POSITION TIME  TEMP    WIND        PRES    WAVE
                       AIR SEA DIR/SP/G            HT/PER
                 (UTC) (F)     (DEG/KT/KT) (MB)    (FT/S)
CHAMBERS ISLAND  0340   50     180/  8/ 16 1017.3F
N MID LAKE BUOY  0350   42 37  200/ 16/ 17 1018.6F   2/ 3
NORTHPORT PIER   0340   49     200/  3/  9 1017.3F
KEWAUNEE LAKESHO 0348   50     230/  5/  7 1018.6F
SHEBOYGAN LAKESH 0300   50     210/  7/  7 1020.7F
PORT WASHINGTON  0340   44     250/  3/  5 1021.7F
MILWAUKEE LAKESH 0350   51     210/  3/  4   N/A
KENOSHA   LAKESH 0400   49     270/  3/  3 1021.0
$$

TC  - TEMPERATURE IN CELSIUS
VSB - VISIBILITY IN STATUTE MILES
WCI - WIND CHILL INDEX
HX  - HEAT INDEX





USA.gov is the U.S. government's official web portal to all federal, state and local government web resources and services.